Temperature
11 11 11 11 10 10 11 11 11 11 11 11 11 11 11 11 11 11 11 11 11 11 10 10 10 10 10 10 10 10 10 10 10 10 10 10 10 10 10 10 10 10 10
10 10 10 10 10 10 10 10 10 10 10 10 10 10 10 10 10 10 10 10 10 10 10 10 10 9 9 9 9 9 9 9 9 9 9 9 9 9 9 9 9 9 10
10 10 10 10 10 10 10 10 10 9 10 10 10 10 10 10 10 10 10 10 10 10 10 10 9 9 9 9 9 9 9 9 9 9 9 9 9 9 9 9 9 9 9
9 9 9 9 9 9 9 9 9 9 9 9 9 9 9 9 9 9 9 9 9 9 9 9 9 9 9 8 8 9 9 9 8 8 8 8 8 8 9 8 9 9 9
9 9 9 9 9 9 8 8 8 8 8 8 8 9 9 8 9 8 8 8 8 9 9 9 9 9 9 8 8 8 8 8 8 8 8 8 8 8 8 8 8 8 8
8 8 8 8 8 8 8 8 8 8 8 8 8 8 8 8 8 8 8 8 8 8 8 8 8 8 8 8 8 8 8 8 8 8 8 8 8 8 8 8 8 8 8
7 7 7 7 7 7 7 7 7 7 7 7 7 7 7 7 8 8 7 7 8 8 8 7 8 8 8 8 8 8 7 7 7 7 7 7 7 7 7 7 7 7 7
7 7 7 7 7 6 6 6 6 6 6 6 6 6 6 6 7 7 7 7 7 7 7 7 7 7 7 7 7 7 7 7 7 7 7 7 7 7 7 7 7 7 7
6 6 6 6 6 6 6 6 5 5 5 5 5 5 5 5 6 6 6 6 6 6 6 6 6 6 6 6 6 7 7 6 6 6 6 6 6 6 7 6 7 7 7
6 6 6 6 5 5 5 5 5 5 4 4 4 4 4 4 4 4 5 6 5 5 6 6 6 6 6 6 6 6 6 6 6 6 6 6 6 6 6 6 6 6 6
5 5 5 5 5 5 5 5 4 4 4 4 4 4 4 4 4 3 4 4 5 5 5 5 5 5 5 5 5 5 5 5 5 5 5 6 5 6 6 6 6 5 5
4 4 4 4 4 4 4 4 4 4 4 3 3 3 3 3 3 3 3 3 4 4 4 4 4 4 5 5 5 5 5 5 5 5 5 5 5 5 5 5 5 5 5
4 4 4 4 3 3 3 3 3 3 3 3 3 3 3 3 3 3 3 2 3 3 4 4 4 4 4 4 4 4 4 4 4 4 4 5 5 5 4 4 5 5 5
3 3 3 3 3 2 2 2 2 2 2 2 2 2 2 2 2 2 2 2 2 2 3 3 3 4 4 4 4 3 4 4 4 3 4 4 4 4 4 4 4 4 4
2 2 2 2 2 2 2 2 1 1 1 1 1 1 1 1 1 2 2 2 1 1 1 2 3 3 3 3 3 3 3 3 3 3 3 3 3 3 3 3 3 4 4
2 2 2 1 1 1 1 1 1 1 0 0 0 0 1 1 1 1 1 1 1 1 1 1 2 2 2 2 2 2 3 3 3 3 3 3 3 3 3 3 3 3 3
1 1 1 1 1 0 0 0 0 -0 -0 -0 -0 -0 -0 0 0 0 1 1 1 1 1 1 1 1 1 2 2 2 2 2 2 2 2 2 2 2 2 2 2 2 2
1 0 0 0 0 -0 -0 -0 -0 -1 -1 -1 -1 -1 -1 -0 -0 -0 -0 0 0 0 0 0 1 1 1 1 1 1 2 2 2 2 2 2 2 2 2 2 2 2 2
-0 -0 -0 -0 -1 -1 -1 -1 -1 -1 -1 -1 -1 -1 -1 -1 -1 -1 -1 -1 -0 -0 -0 -0 -0 0 0 0 0 1 1 1 1 2 2 1 1 1 1 1 1 1 2
-1 -1 -1 -1 -1 -1 -1 -1 -1 -1 -1 -2 -2 -2 -2 -2 -1 -1 -1 -1 -1 -1 -1 -1 -1 -1 -1 -1 -0 -0 0 0 1 1 1 1 1 1 1 1 1 1 1
-1 -1 -1 -1 -1 -2 -1 -2 -2 -2 -2 -2 -2 -2 -2 -2 -2 -2 -2 -1 -1 -1 -1 -1 -1 -1 -1 -1 -1 -1 -1 -1 -0 0 0 1 1 1 1 1 1 1 1
-2 -2 -2 -2 -2 -2 -2 -2 -2 -2 -2 -2 -2 -2 -2 -2 -2 -2 -2 -2 -2 -1 -1 -1 -1 -2 -1 -1 -2 -1 -1 -1 -1 -1 -1 -0 0 0 0 0 0 0 0
-2 -2 -2 -2 -2 -2 -2 -2 -2 -2 -3 -3 -3 -3 -3 -3 -2 -2 -2 -2 -2 -2 -2 -2 -2 -1 -2 -2 -2 -2 -2 -2 -1 -1 -1 -1 -0 -0 -0 -0 -0 -0 -0
-2 -2 -2 -2 -3 -2 -3 -3 -3 -3 -3 -3 -3 -3 -3 -3 -3 -3 -3 -2 -2 -2 -2 -2 -2 -2 -2 -2 -2 -2 -2 -2 -1 -1 -2 -1 -1 -1 -1 -1 -1 -1 -0
-3 -3 -3 -3 -3 -3 -3 -3 -3 -3 -3 -3 -3 -3 -3 -3 -3 -3 -3 -2 -2 -2 -2 -2 -2 -2 -2 -2 -2 -2 -2 -2 -2 -2 -2 -2 -1 -1 -1 -1 -1 -1 -1
-3 -3 -3 -3 -3 -3 -3 -3 -3 -3 -3 -3 -3 -3 -3 -3 -3 -3 -3 -3 -3 -2 -2 -2 -2 -2 -2 -2 -2 -2 -2 -3 -3 -3 -2 -2 -2 -2 -2 -2 -2 -2 -2
Wind_Speed
3 3 3 4 4 4 3 3 3 2 2 3 2 2 1 1 2 2 1 1 2 3 3 4 4 4 5 5 5 5 6 6 6 7 7 7 7 7 7 7 8 8 8
4 3 3 3 4 5 4 3 3 3 2 2 2 2 2 2 2 2 2 3 4 4 5 5 5 5 6 6 6 6 6 6 7 7 7 7 8 8 8 8 8 9 9
5 4 2 2 3 5 5 4 3 3 2 2 3 3 3 3 2 3 3 3 3 4 5 5 6 6 7 7 7 7 7 7 7 7 8 8 9 9 9 10 10 10 9
5 4 3 2 4 4 4 3 2 2 2 3 3 3 2 3 3 3 2 2 2 3 4 6 6 7 7 8 8 8 8 8 8 8 8 8 8 9 10 11 11 11 11
5 4 3 3 4 3 3 3 2 2 2 2 3 3 3 3 3 3 2 2 2 2 2 4 6 7 7 8 8 9 8 8 8 8 8 8 8 8 10 10 11 11 12
4 4 3 3 4 2 2 2 2 2 2 2 4 4 3 4 3 3 3 2 2 3 3 4 4 6 7 9 9 9 9 8 8 8 8 9 9 10 10 10 11 11 12
3 3 3 2 2 2 2 2 2 2 2 2 2 3 4 4 3 3 2 2 2 3 4 4 3 4 5 8 9 10 10 9 9 9 9 9 10 10 11 12 12 12 12
2 2 2 1 2 2 2 3 2 2 2 2 1 2 3 3 2 3 3 3 3 2 3 4 4 4 5 5 7 9 10 10 10 10 10 10 11 11 12 12 12 13 13
1 2 2 2 2 1 1 2 2 2 3 3 1 1 1 3 3 3 3 3 2 2 3 3 4 5 6 6 6 7 9 10 10 11 11 12 11 12 12 12 13 14 14
1 2 2 2 2 2 2 2 2 2 3 3 3 3 3 2 2 3 3 3 3 3 4 4 4 4 5 6 7 7 8 9 10 11 12 12 12 13 13 13 14 14 14
1 2 2 2 2 2 2 3 3 3 3 4 4 3 4 4 4 4 5 4 4 3 3 3 3 4 5 6 6 7 8 9 10 11 12 12 13 13 13 13 13 13 13
2 2 2 2 2 2 3 3 3 4 4 4 4 4 4 3 3 4 5 5 5 4 4 3 3 3 5 6 7 9 9 9 10 11 11 11 12 12 12 13 13 12 11
2 3 3 2 2 3 3 3 4 5 5 5 5 4 4 5 4 4 5 5 5 4 4 3 3 3 5 5 6 9 9 10 10 10 11 11 11 12 13 13 12 12 12
3 3 3 3 3 4 4 3 4 5 4 4 5 5 4 5 4 4 4 4 6 5 4 4 3 3 4 5 8 10 9 10 10 10 11 11 12 12 12 12 11 11 12
3 3 3 3 4 4 4 4 4 5 4 4 4 5 5 4 4 4 4 4 5 7 7 5 3 3 4 6 9 8 7 9 10 11 11 10 11 11 11 11 11 11 11
3 3 4 4 4 4 4 4 4 5 5 5 4 4 5 4 4 4 5 5 5 6 7 4 4 5 6 7 10 8 8 10 10 10 10 10 10 10 10 10 11 11 11
3 4 4 4 4 4 4 4 5 5 5 5 5 5 6 5 5 5 4 5 5 5 8 7 5 5 5 6 6 7 8 7 7 9 10 10 10 10 10 10 10 10 11
4 4 4 4 5 5 5 5 5 5 6 6 6 6 7 6 6 5 5 6 6 5 6 8 6 5 6 5 5 5 5 6 6 9 9 10 10 9 9 9 9 9 10
4 4 4 5 5 5 6 6 6 6 6 7 7 7 7 6 7 6 6 6 6 6 5 6 7 5 5 4 5 5 5 4 6 7 8 9 9 8 8 8 9 9 9
4 4 5 5 5 6 6 6 6 6 6 6 7 7 7 7 7 7 6 6 6 6 5 5 6 5 5 4 4 4 5 3 4 5 6 7 7 7 8 8 8 8 8
5 4 5 5 5 5 5 5 5 6 6 6 7 7 7 8 9 8 7 6 6 6 5 6 6 6 5 4 4 4 5 5 5 3 3 4 4 3 4 7 7 8 8
5 5 5 5 6 5 7 9 7 6 6 7 7 7 7 8 9 11 12 11 9 8 7 6 6 7 6 5 4 4 4 5 5 2 2 5 3 3 3 3 6 7 7
4 5 5 5 6 7 8 9 9 6 6 7 7 7 7 7 8 7 9 9 10 11 10 8 7 7 6 5 5 5 5 5 6 4 3 5 3 3 3 4 7 7 6
4 5 5 5 5 7 9 9 9 6 6 7 7 7 7 7 7 7 6 6 6 7 7 6 5 6 5 4 4 5 5 5 5 4 3 4 3 3 4 3 6 5 5
5 5 5 5 6 7 8 9 8 4 5 6 6 6 6 5 8 9 6 6 6 5 6 6 6 6 7 7 4 2 3 3 4 3 2 2 2 2 3 3 3 3 4
5 5 5 5 5 6 8 8 8 3 4 4 4 5 7 7 9 8 5 5 6 6 4 4 4 4 4 5 6 4 3 3 3 3 1 1 1 2 2 2 2 2 3
Wind_Direction
36 30 27 22 14 8 358 348 343 346 355 333 317 322 322 299 294 305 290 234 221 231 251 266 276 283 280 279 279 280 281 283 284 285 281 277 278 278 278 280 281 281 277
29 30 25 23 16 359 347 347 347 342 344 333 321 317 306 296 276 276 261 250 239 240 248 258 268 279 278 278 278 280 281 284 285 285 285 281 279 278 277 278 278 279 279
20 22 24 30 10 354 352 345 350 358 340 329 313 315 320 309 287 270 254 244 248 246 249 259 268 279 281 278 279 280 278 278 282 281 283 283 281 279 279 276 274 275 276
19 21 23 16 0 357 359 348 345 343 333 328 318 305 301 297 287 273 262 248 241 257 260 266 271 277 286 282 281 281 280 279 280 279 279 281 283 282 279 278 275 273 273
17 21 19 9 356 358 1 340 343 330 313 315 305 291 278 271 269 271 267 249 233 229 259 269 268 270 282 283 282 282 281 283 281 281 278 279 282 285 282 281 280 275 272
16 14 14 4 358 357 346 337 323 321 302 307 306 297 276 264 249 242 245 253 241 240 255 265 265 269 275 285 286 285 282 284 284 282 279 278 279 280 281 281 282 282 278
6 12 3 355 352 337 323 323 314 320 310 315 310 308 286 266 248 244 235 238 248 250 261 267 269 271 276 280 282 284 283 283 284 284 281 279 279 280 280 279 279 280 282
349 352 357 330 328 324 331 328 326 314 308 319 303 304 312 310 295 256 248 250 249 261 262 268 270 276 281 281 284 283 283 284 287 288 287 282 282 281 281 281 280 280 280
317 337 322 317 309 299 290 294 304 297 288 298 293 258 275 277 309 289 266 261 270 273 275 278 270 271 273 276 281 280 278 278 283 288 289 287 283 281 282 282 282 281 279
266 299 299 305 300 288 277 281 289 276 266 271 282 261 249 251 267 296 295 288 288 279 273 281 280 281 280 283 277 276 277 278 282 287 291 292 290 287 282 282 284 286 284
247 262 268 278 277 274 267 271 280 277 264 258 261 272 269 267 249 249 276 289 293 281 277 278 284 285 284 282 282 279 280 281 284 286 288 291 294 294 288 287 287 286 286
256 258 267 270 268 269 264 267 268 273 270 269 265 263 256 252 256 254 266 279 283 282 286 277 269 279 278 278 282 284 281 282 283 285 287 289 290 293 294 292 291 288 287
264 253 271 272 275 275 276 276 267 267 268 268 265 263 264 263 261 264 267 279 283 283 277 275 257 271 278 282 288 285 284 285 284 286 288 289 289 288 288 288 286 285 284
252 263 270 271 274 274 276 274 271 269 266 264 267 266 265 268 268 262 260 272 286 282 270 270 281 267 288 285 286 288 287 283 283 285 286 287 288 287 286 284 285 284 285
261 263 263 264 268 271 271 266 265 269 267 265 263 262 262 265 267 264 257 252 257 275 278 271 273 281 306 296 291 291 289 288 283 284 284 285 287 286 285 286 287 287 288
268 264 265 265 265 268 268 265 268 265 265 267 266 266 268 268 270 266 258 258 251 257 270 269 279 293 297 299 298 297 294 292 287 284 284 286 287 288 288 288 289 289 288
264 260 261 261 264 266 266 266 266 270 271 273 272 269 271 270 267 268 264 262 259 255 267 281 280 288 287 290 297 297 297 293 289 285 285 287 288 290 292 289 287 287 287
268 262 260 260 265 271 270 266 265 267 266 269 270 269 270 272 266 264 260 261 262 259 262 279 287 287 287 286 290 290 302 298 295 287 285 288 289 289 292 293 292 290 289
280 277 269 268 270 270 270 268 264 263 263 265 267 264 265 266 266 263 260 261 262 263 260 269 283 286 285 288 293 293 292 293 296 291 289 290 288 288 292 299 298 298 296
280 274 271 268 266 267 269 270 270 269 271 272 273 269 266 263 266 263 261 259 262 262 261 266 276 283 283 279 282 289 295 290 292 301 298 296 293 295 295 300 299 300 301
280 276 278 277 274 271 267 269 267 269 271 275 277 275 271 271 272 270 268 262 261 262 263 263 270 279 280 283 278 283 288 295 294 287 296 302 301 301 302 299 300 301 303
290 286 279 278 277 277 275 277 277 269 272 272 275 276 274 269 272 276 277 275 268 263 261 261 265 269 272 271 273 275 280 292 294 285 299 298 292 288 296 294 299 305 311
297 294 286 283 283 281 278 280 281 276 271 271 270 271 274 275 275 266 274 279 276 272 265 258 261 264 266 261 261 268 270 278 281 276 287 288 290 286 294 294 300 304 311
297 293 291 287 286 285 283 282 286 277 269 269 268 268 271 274 275 276 274 275 274 275 272 264 253 260 266 259 252 259 266 278 282 273 260 273 282 284 294 300 298 303 311
302 295 292 289 286 288 286 287 291 275 271 273 274 274 275 273 281 284 279 278 283 285 292 285 282 279 280 281 280 279 274 277 281 280 257 249 272 303 302 292 299 311 319
302 302 299 294 288 287 290 293 297 277 279 284 280 278 281 285 285 285 279 277 283 290 290 294 298 297 284 280 280 253 245 258 272 275 259 262 271 318 309 297 309 337 332
Height
1518 1518 1519 1519 1519 1519 1519 1520 1520 1520 1520 1520 1521 1521 1521 1521 1521 1521 1521 1522 1522 1522 1522 1522 1522 1522 1522 1522 1522 1521 1521 1521 1521 1521 1520 1520 1520 1520 1519 1519 1518 1518 1518
1516 1516 1517 1517 1517 1517 1517 1518 1518 1518 1518 1518 1518 1518 1518 1518 1518 1518 1518 1518 1519 1519 1519 1519 1519 1519 1519 1519 1519 1519 1518 1518 1518 1518 1517 1517 1517 1516 1516 1516 1515 1515 1514
1515 1515 1515 1515 1515 1515 1515 1515 1515 1515 1515 1515 1515 1515 1515 1515 1515 1515 1515 1515 1515 1515 1516 1516 1516 1516 1516 1516 1515 1515 1515 1515 1514 1514 1514 1514 1513 1513 1512 1512 1512 1511 1511
1513 1512 1512 1512 1512 1512 1512 1512 1512 1512 1512 1512 1512 1512 1512 1512 1512 1512 1512 1512 1512 1512 1512 1512 1512 1512 1512 1512 1512 1512 1511 1511 1511 1510 1510 1510 1509 1509 1509 1508 1508 1507 1507
1510 1510 1510 1510 1510 1510 1510 1510 1510 1509 1509 1509 1509 1508 1508 1508 1508 1508 1508 1508 1508 1508 1508 1508 1508 1508 1508 1508 1508 1507 1507 1507 1507 1506 1506 1506 1505 1505 1505 1505 1504 1503 1503
1508 1508 1508 1508 1508 1507 1507 1507 1507 1507 1506 1506 1506 1505 1505 1505 1505 1505 1505 1505 1505 1505 1505 1504 1504 1504 1504 1504 1504 1503 1503 1503 1502 1502 1502 1501 1501 1501 1500 1500 1500 1499 1499
1506 1505 1505 1505 1505 1505 1505 1505 1504 1504 1504 1504 1503 1502 1501 1501 1501 1501 1501 1501 1501 1501 1501 1500 1500 1500 1499 1499 1499 1499 1499 1498 1498 1497 1497 1496 1496 1496 1495 1495 1495 1494 1494
1503 1503 1503 1502 1502 1502 1502 1502 1502 1501 1501 1501 1501 1499 1498 1499 1498 1498 1497 1497 1497 1497 1497 1496 1496 1496 1495 1495 1495 1494 1494 1494 1493 1493 1492 1492 1491 1491 1490 1490 1490 1489 1489
1500 1500 1500 1500 1499 1499 1499 1499 1499 1499 1498 1499 1499 1499 1498 1496 1495 1494 1494 1494 1493 1493 1492 1492 1492 1491 1491 1491 1490 1490 1489 1489 1489 1488 1487 1487 1486 1486 1485 1485 1484 1484 1483
1497 1497 1497 1497 1496 1496 1496 1496 1496 1495 1495 1495 1496 1496 1496 1495 1494 1490 1490 1490 1490 1489 1489 1488 1487 1487 1487 1486 1486 1485 1485 1484 1484 1483 1483 1482 1481 1481 1480 1479 1479 1478 1478
1493 1493 1493 1493 1492 1492 1492 1492 1492 1492 1492 1491 1491 1492 1492 1491 1491 1489 1486 1485 1485 1485 1484 1484 1483 1483 1482 1482 1481 1481 1480 1479 1479 1478 1478 1477 1476 1475 1474 1474 1473 1472 1472
1489 1489 1489 1489 1489 1488 1488 1488 1487 1487 1487 1487 1487 1487 1487 1487 1486 1485 1483 1481 1480 1480 1480 1479 1479 1478 1478 1477 1476 1476 1475 1475 1474 1473 1472 1471 1471 1470 1468 1468 1467 1467 1466
1485 1485 1485 1485 1484 1484 1484 1483 1483 1483 1482 1482 1482 1482 1482 1482 1481 1481 1480 1478 1476 1475 1474 1474 1474 1474 1473 1473 1472 1471 1470 1469 1469 1468 1467 1466 1465 1464 1463 1462 1461 1461 1460
1481 1481 1481 1480 1480 1479 1479 1479 1478 1478 1478 1477 1477 1477 1476 1476 1476 1476 1476 1475 1472 1470 1469 1469 1469 1469 1468 1467 1467 1466 1465 1464 1463 1462 1461 1460 1459 1459 1458 1457 1456 1455 1454
1477 1477 1476 1476 1475 1475 1474 1474 1473 1472 1472 1472 1472 1471 1471 1471 1471 1471 1471 1471 1470 1466 1463 1463 1464 1463 1463 1462 1461 1460 1459 1458 1457 1456 1456 1455 1454 1453 1452 1451 1450 1449 1449
1473 1472 1471 1471 1470 1470 1469 1469 1468 1467 1467 1467 1467 1466 1466 1465 1465 1466 1465 1465 1465 1464 1460 1458 1459 1458 1458 1457 1456 1455 1454 1452 1452 1451 1450 1449 1448 1447 1447 1445 1444 1443 1443
1468 1468 1467 1466 1465 1465 1464 1464 1463 1463 1462 1462 1461 1461 1460 1460 1460 1460 1460 1460 1459 1459 1456 1454 1454 1453 1453 1452 1450 1449 1448 1447 1446 1445 1444 1443 1443 1442 1441 1440 1439 1438 1437
1464 1463 1462 1461 1461 1460 1460 1459 1458 1458 1457 1456 1456 1455 1455 1455 1454 1454 1454 1454 1453 1453 1452 1449 1448 1448 1447 1446 1445 1444 1442 1442 1440 1440 1439 1438 1437 1436 1435 1434 1433 1432 1431
1459 1458 1458 1457 1456 1455 1455 1454 1453 1452 1452 1451 1451 1450 1449 1449 1448 1448 1448 1448 1448 1447 1447 1445 1442 1442 1442 1441 1440 1438 1437 1437 1435 1434 1434 1433 1432 1431 1430 1429 1428 1427 1426
1455 1453 1453 1452 1451 1451 1450 1449 1448 1447 1447 1446 1446 1445 1444 1443 1442 1442 1442 1442 1442 1442 1441 1440 1438 1437 1436 1436 1435 1433 1431 1431 1430 1430 1429 1428 1427 1426 1425 1424 1423 1422 1420
1450 1449 1448 1447 1446 1446 1445 1444 1443 1442 1442 1441 1440 1439 1438 1438 1437 1437 1437 1437 1437 1436 1436 1435 1433 1432 1431 1430 1430 1429 1427 1426 1425 1425 1424 1423 1422 1421 1420 1420 1419 1417 1416
1446 1445 1443 1442 1442 1441 1440 1439 1439 1438 1436 1435 1434 1433 1433 1432 1432 1432 1432 1432 1432 1432 1431 1430 1429 1427 1426 1426 1426 1424 1423 1422 1420 1421 1420 1418 1418 1417 1416 1415 1414 1413 1412
1442 1441 1439 1438 1437 1436 1435 1434 1434 1433 1431 1430 1429 1428 1428 1427 1427 1426 1426 1426 1427 1426 1426 1426 1424 1423 1422 1421 1420 1420 1419 1418 1417 1416 1416 1413 1414 1412 1412 1412 1410 1409 1408
1438 1437 1435 1434 1432 1431 1431 1430 1429 1428 1427 1426 1425 1424 1423 1422 1422 1422 1421 1421 1421 1421 1421 1420 1419 1419 1418 1417 1416 1416 1414 1413 1413 1412 1412 1410 1409 1408 1408 1408 1407 1405 1404
1434 1433 1432 1430 1429 1427 1427 1426 1425 1423 1422 1422 1421 1420 1419 1418 1418 1418 1417 1416 1416 1415 1415 1415 1415 1414 1414 1413 1412 1411 1410 1409 1408 1407 1408 1407 1405 1404 1404 1403 1403 1402 1401
1431 1430 1428 1427 1425 1424 1423 1422 1421 1420 1418 1418 1417 1417 1416 1415 1414 1414 1413 1412 1411 1411 1411 1410 1410 1409 1409 1408 1407 1407 1406 1405 1404 1403 1403 1404 1402 1402 1400 1400 1399 1399 1398